, MO

(GMT )
Kansas City

Weather History for KMKC - October, 2013

Change the Weather History Date:

Friday, October 4, 2013

  Actual Average Record
Temperature  
Mean Temperature 77 °F -  
Max Temperature 89 °F 70 °F 89 °F (2013)
Min Temperature 66 °F 50 °F 39 °F (1999)
Cooling Degree Days 12    
Growing Degree Days 27 (Base 50)    
Moisture  
Dew Point 66 °F    
Average Humidity 72    
Maximum Humidity 88    
Minimum Humidity 48    
Precipitation  
Precipitation 0.57 in - - ()
Sea Level Pressure  
Sea Level Pressure 29.80 in    
Wind  
Wind Speed 11 mph (SSW)    
Max Wind Speed 22 mph    
Max Gust Speed 31 mph    
Visibility 9 miles    
Events Rain , Thunderstorm    
Averages and records for this station are not official NWS values.
T = Trace of Precipitation, MM = Missing Value Source: NWS Daily Summary

Daily Weather History Graph

Daily Weather History Graph

Search for Another Location

Airport or City:

Trip Planner

Search our weather history database for the weather conditions in past years. The results will help you decide how hot, cold, wet, or windy it might be!

Date:

Astronomy

Oct. 04, 2013 Rise Set
Actual Time 7:17 AM CDT 6:55 PM CDT
Civil Twilight 6:50 AM CDT 7:22 PM CDT
Nautical Twilight 6:19 AM CDT 7:53 PM CDT
Astronomical Twilight 5:48 AM CDT 8:24 PM CDT
Moon 6:53 AM CDT (10/4) 6:39 PM CDT (10/4)
Length of Visible Light 12h 31m
Length of Day
11h 38m
Waning Crescent, 0% of the Moon is Illuminated
Oct 4
Waning Crescent
Oct 4
New
Oct 11
First Quarter
Oct 18
Full
Oct 26
Last Quarter

Hourly Weather History & Observations

Time (CDT) Temp. Heat Index Dew Point Humidity Pressure Visibility Wind Dir Wind Speed Gust Speed Precip Events Conditions
12:54 AM 75.0 °F - 66.0 °F 73% 29.79 in 10.0 mi South 11.5 mph 19.6 mph N/A   Clear
1:54 AM 73.9 °F - 66.0 °F 76% 29.79 in 10.0 mi South 10.4 mph 16.1 mph N/A   Clear
2:54 AM 73.0 °F - 66.0 °F 79% 29.78 in 10.0 mi South 10.4 mph - N/A   Clear
3:54 AM 72.0 °F - 66.0 °F 81% 29.79 in 10.0 mi South 8.1 mph 17.3 mph N/A   Clear
4:54 AM 72.0 °F - 66.0 °F 81% 29.78 in 10.0 mi South 8.1 mph - N/A   Clear
5:54 AM 72.0 °F - 66.0 °F 81% 29.79 in 10.0 mi South 10.4 mph - N/A   Partly Cloudy
6:06 AM 71.6 °F - 66.2 °F 83% 29.81 in 10.0 mi SSW 9.2 mph - N/A   Mostly Cloudy
6:54 AM 72.0 °F - 66.0 °F 81% 29.79 in 10.0 mi South 10.4 mph - N/A   Mostly Cloudy
7:03 AM 71.6 °F - 66.2 °F 83% 29.81 in 10.0 mi South 9.2 mph 19.6 mph N/A   Scattered Clouds
7:34 AM 71.6 °F - 66.2 °F 83% 29.81 in 8.0 mi South 11.5 mph 19.6 mph N/A   Mostly Cloudy
7:54 AM 72.0 °F - 66.9 °F 84% 29.79 in 8.0 mi South 10.4 mph 17.3 mph N/A   Overcast
8:44 AM 73.4 °F - 66.2 °F 78% 29.82 in 9.0 mi South 10.4 mph 17.3 mph N/A   Overcast
8:54 AM 73.9 °F - 68.0 °F 82% 29.80 in 9.0 mi South 10.4 mph - N/A   Overcast
9:54 AM 77.0 °F - 69.1 °F 76% 29.79 in 10.0 mi South 16.1 mph 20.7 mph N/A   Mostly Cloudy
10:20 AM 78.8 °F - 69.8 °F 74% 29.81 in 10.0 mi South 11.5 mph 19.6 mph N/A   Scattered Clouds
10:54 AM 80.1 °F 82.9 °F 69.1 °F 69% 29.78 in 10.0 mi SSW 17.3 mph 21.9 mph N/A   Partly Cloudy
11:54 AM 82.0 °F 85.5 °F 69.1 °F 65% 29.78 in 10.0 mi South 16.1 mph 21.9 mph N/A   Clear
12:54 PM 84.9 °F 88.8 °F 69.1 °F 59% 29.77 in 10.0 mi South 17.3 mph 25.3 mph N/A   Clear
1:54 PM 86.0 °F 89.4 °F 68.0 °F 55% 29.74 in 10.0 mi SSW 18.4 mph 27.6 mph N/A   Clear
2:54 PM 87.1 °F 89.2 °F 66.0 °F 49% 29.73 in 10.0 mi SSW 16.1 mph - N/A   Clear
3:54 PM 88.0 °F 90.3 °F 66.0 °F 48% 29.73 in 10.0 mi South 21.9 mph 31.1 mph N/A   Clear
4:54 PM 87.1 °F 88.9 °F 64.9 °F 48% 29.72 in 10.0 mi South 12.7 mph 25.3 mph N/A   Clear
5:54 PM 86.0 °F 87.6 °F 64.9 °F 49% 29.73 in 10.0 mi SSE 16.1 mph 24.2 mph N/A   Clear
6:54 PM 82.9 °F 84.6 °F 64.9 °F 54% 29.76 in 10.0 mi South 10.4 mph - N/A   Clear
7:54 PM 82.0 °F 83.8 °F 64.9 °F 56% 29.77 in 10.0 mi South 11.5 mph - N/A   Clear
8:54 PM 81.0 °F 82.7 °F 64.9 °F 58% 29.79 in 10.0 mi South 16.1 mph 21.9 mph N/A   Clear
9:29 PM 80.6 °F 82.3 °F 64.4 °F 58% 29.83 in 10.0 mi SSW 11.5 mph - N/A Thunderstorm Scattered Clouds
9:54 PM 73.9 °F - 60.1 °F 62% 29.85 in 10.0 mi NW 12.7 mph 18.4 mph N/A Thunderstorm Overcast
10:10 PM 69.8 °F - 62.6 °F 78% 29.88 in 1.8 mi SW 11.5 mph 27.6 mph 0.18 in Rain , Thunderstorm Heavy Thunderstorms and Rain
10:24 PM 66.2 °F - 62.6 °F 88% 29.87 in 3.0 mi South 5.8 mph - 0.32 in Rain , Thunderstorm Light Thunderstorms and Rain
10:54 PM 69.1 °F - 64.0 °F 84% 29.87 in 10.0 mi SW 6.9 mph - 0.32 in Thunderstorm Overcast
11:08 PM 68.0 °F - 64.4 °F 88% 29.89 in 1.0 mi SW 5.8 mph - 0.18 in Rain , Thunderstorm Heavy Thunderstorms and Rain
11:14 PM 68.0 °F - 64.4 °F 88% 29.89 in 3.0 mi SSW 5.8 mph - 0.19 in Rain , Thunderstorm Thunderstorms and Rain
11:42 PM 68.0 °F - 64.4 °F 88% 29.90 in 4.0 mi SW 5.8 mph - 0.24 in Rain Rain
11:54 PM 68.0 °F - 64.0 °F 87% 29.88 in 8.0 mi WSW 5.8 mph - 0.25 in Rain Light Rain